Weather Roundup
Issued by NWS Springfield, MO

Home | Current Version | Previous Version | Text Only | Print | Product List | Glossary On
Versions: 1 2 3 4 5 6 7 8 9 10 11 12 13 14 15 16 17 18 19 20 21 22 23 24 25 26 27 28 29 30 31 32 33 34 35 36 37 38 39 40 41 42 43 44 45 46 47 48 49 50
000
NZUS99 KSGF 210907
HRRSGF

HOURLY WEATHER
NATIONAL WEATHER SERVICE SPRINGFIELD MO
300 AM CST SUN DEC 21 2014

......SGF CWA......

CITY           SKY/WX    TMP DP  RH WIND       PRES   REMARKS
SPRINGFIELD    CLOUDY    41  35  79 SE9       30.13F
JOPLIN         CLOUDY    43  38  82 S9        30.12F
WEST PLAINS    CLOUDY    38  34  85 SE6       30.18F WCI  33
ROLLA          CLOUDY    39  33  79 SE9       30.14F WCI  33
OSAGE BEACH    CLOUDY    43  34  70 S7        30.14F
BRANSON        CLOUDY    39  36  87 SE3       30.17S

......SURROUNDING SGF CWA......

CITY           SKY/WX    TMP DP  RH WIND       PRES   REMARKS
CHANUTE        CLOUDY    40  37  89 S13       30.10F WCI  32
PARSONS        CLOUDY    41  38  89 S10       30.12S
COFFEYVILLE    CLOUDY    42  38  85 S13       30.11F
EMPORIA        CLOUDY    37  35  92 S8        30.07R WCI  31
GROVE OK       CLOUDY    45  41  87 SE3       30.15F
ROGERS AR      CLOUDY    41  37  86 S6        30.15F
SILOAM SPRINGS CLOUDY    43  36  75 S6        30.15F
HARRISON AR    CLOUDY    39  37  92 SE5       30.17S
NEAR YELLVILLE CLOUDY    39  36  87 CALM      30.19S

......KANSAS AND MISSOURI......

CITY           SKY/WX    TMP DP  RH WIND       PRES   REMARKS
KANSAS CTY INT PTCLDY    35  32  88 S8        30.09R FOG     WCI  29
DOWNTOWN KC    MOCLDY    36  32  85 S7        30.10S WCI  30
COLUMBIA       CLOUDY    40  35  83 SE6       30.14F
SEDALIA        CLOUDY    42  35  76 SW6       30.13S
ST JOSEPH      MOCLDY    33  31  92 S8        30.09S WCI  26
ST LOUIS       CLOUDY    42  33  70 SE8       30.22F
SPIRIT OF STL  CLOUDY    41  34  76 SE3       30.20F
KIRKSVILLE     CLOUDY    38  36  92 S10       30.14S WCI  31
WICHITA        CLOUDY    42  37  82 S14       30.04F
TOPEKA         CLOUDY   N/A N/A N/A S7        30.08F
OLATHE         CLOUDY    35  33  92 S8        30.09R FOG     WCI  29

......TENNESSEE......

CITY           SKY/WX    TMP DP  RH WIND       PRES   REMARKS
MEMPHIS        CLEAR     36  29  75 E5        30.21F WCI  32
NASHVILLE      CLEAR     28  25  88 CALM      30.26S

......ARKANSAS.......

CITY           SKY/WX    TMP DP  RH WIND       PRES   REMARKS
FAYETTEVILLE   CLOUDY    41  39  93 CALM      30.16S
FT SMITH       CLOUDY    44  40  85 NE3       30.18F
LITTLE ROCK    CLEAR     35  32  88 CALM      30.22S FOG

......OKLAHOMA.......

CITY           SKY/WX    TMP DP  RH WIND       PRES   REMARKS
TULSA          CLOUDY    42  41  96 S6        30.14F
PONCA CITY     CLOUDY    42  38  85 SE12      30.08F
MCALESTER      CLOUDY    45  43  93 CALM      30.15S
OKLAHOMA CITY  CLOUDY    43  37  79 SE10      30.08F

......IOWA............

CITY           SKY/WX    TMP DP  RH WIND       PRES   REMARKS
DES MOINES     CLOUDY    39  35  86 S10       30.05F WCI  32
QUAD CITIES    CLOUDY    35  32  88 S6        30.16F FOG     WCI  30

......ILLINOIS........

CITY           SKY/WX    TMP DP  RH WIND       PRES   REMARKS
QUINCY         CLOUDY    38  34  85 S8        30.18S WCI  32
CHICAGO        CLOUDY    32  26  78 S7        30.23S WCI  26




USA.gov is the U.S. government's official web portal to all federal, state and local government web resources and services.